#timestamp,LO_Frequency,Hit,StdDev 
1510016415.0,286047002.8,N
1510016416.0,286047002.8,N
1510016435.8,286047000.7,N
1510016455.6,286046996.9,N
1510016475.5,286046998.6,N
1510016495.3,286046999.0,N
1510016515.2,286047001.0,N
1510016535.9,286047001.1,N
1510016555.7,286046998.1,N
1510016575.6,286046998.1,N
1510016595.4,286047001.2,N
1510016615.3,286047001.2,N
1510016635.1,286046998.4,N
1510016655.9,286046995.4,N
1510016675.7,286047001.2,N
1510016695.5,286047002.6,N
1510016715.4,286047004.0,N
1510016735.2,286047004.3,N
1510016755.1,286047003.5,N
1510016756.0,286047003.5,N
1510016775.8,286047002.7,N
1510016795.7,286047001.8,N
1510016815.5,286047003.0,N
1510016835.3,286047001.8,N
1510016855.2,286047001.0,N
1510016875.0,286046998.5,N
1510016875.9,286046998.5,N
1510016895.8,286046999.0,N
1510016915.6,286046998.8,N
1510016935.4,286046997.8,N
1510016955.3,286046997.2,N
1510016975.1,286046995.3,N
1510016995.9,286046997.6,N
1510017015.7,286046997.4,N
1510017035.6,286046997.2,N
1510017055.4,286046997.1,N
1510017075.2,286046999.6,N
1510017095.1,286047000.5,N
1510017096.0,286047000.5,N
1510017115.8,286047001.2,N
1510017135.6,286046998.5,N
1510017155.5,286046998.0,N
1510017175.3,286046999.1,N
1510017195.2,286047005.2,N
1510017215.9,286047008.2,Y
1510017235.7,286047001.7,P
1510017255.6,286047000.6,N
1510017275.4,286046998.8,N
1510017295.3,286046994.9,Y
1510017315.1,286046993.4,P
1510017335.9,286046993.7,N
1510017355.7,286046997.3,N
1510017375.6,286046990.5,Y
1510017395.4,286046995.0,P
1510017415.2,286046999.4,N
1510017435.1,286046999.2,N
1510017436.0,286046999.2,N
1510017455.8,286047001.9,N
1510017475.7,286047004.3,N
1510017495.5,286047003.8,N
1510017515.4,286047001.4,N
1510017535.2,286047004.0,N
1510017555.0,286046998.4,N
1510017555.9,286046998.4,N
1510017575.8,286046998.3,N
1510017595.6,286046998.8,N
1510017615.5,286046996.9,N
1510017635.3,286047000.7,N
1510017655.2,286047000.6,N
1510017675.9,286046993.3,N
1510017695.7,286046997.2,N
1510017715.6,286046998.3,N
1510017735.4,286046997.3,N
1510017755.3,286046998.1,N
1510017775.1,286046998.8,N
1510017795.9,286046998.1,N
1510017815.7,286047000.4,N
1510017835.5,286047004.6,N
1510017855.4,286047004.8,N
1510017875.2,286047003.7,N
1510017895.1,286047004.1,N
1510017896.0,286047004.1,N
1510017915.8,286047007.2,N
1510017935.7,286047003.9,N
1510017955.5,286047004.4,N
1510017975.3,286047000.9,N
1510017995.2,286047001.5,N
1510018015.0,286047003.5,N
1510018015.9,286047003.5,N
1510018035.8,286047003.9,N
1510018055.6,286047005.6,N
1510018075.5,286047004.3,N
1510018095.3,286047001.5,N
1510018115.1,286047001.5,N
1510018135.9,286047003.0,N
1510018155.7,286047004.6,N
1510018175.5,286047007.4,N
1510018195.4,286047005.6,N
1510018215.2,286047005.3,N
1510018235.1,286047005.6,N
1510018236.0,286047005.6,N
1510018255.8,286047003.1,N
1510018275.7,286047004.0,N
1510018295.5,286046999.8,N
1510018315.3,286047000.7,N
1510018335.2,286047000.5,N
1510018355.9,286046999.7,N
1510018375.7,286047004.2,N
1510018395.6,286047005.5,N
1510018415.4,286047003.6,N
1510018435.3,286047003.5,N
1510018455.1,286047003.6,N
1510018475.8,286047003.5,N
1510018495.7,286047002.8,N
1510018515.5,286047000.2,N
1510018535.4,286047001.8,N
1510018555.2,286047001.4,N
1510018575.0,286047002.0,N
1510018576.0,286047002.0,N
1510018595.8,286046999.0,N
1510018615.6,286046999.2,N
1510018635.5,286046996.5,N
1510018655.3,286046998.5,N
1510018675.1,286047001.0,N
1510018695.9,286047001.7,N
1510018715.7,286047004.3,N
1510018735.6,286047003.6,N
1510018755.4,286047001.5,N
1510018775.2,286047005.8,N
1510018795.1,286047004.8,N
1510018796.0,286047004.8,N
1510018815.8,286047006.2,N
1510018835.6,286047005.8,N
1510018855.5,286047002.3,N
1510018875.3,286047004.0,N
1510018895.2,286047005.8,N
1510018915.0,286047003.7,N
1510018915.9,286047003.7,N
1510018935.8,286047003.3,N
1510018955.6,286047003.4,N
1510018975.4,286047005.6,N
1510018995.3,286047005.3,N
1510019015.1,286047003.9,N
1510019035.8,286047004.8,N
1510019055.7,286047004.8,N
1510019075.5,286047005.8,N
1510019095.4,286047009.0,Y
1510019115.2,286047004.7,P
1510019135.0,286047008.8,P
1510019135.9,286047008.8,P
1510019155.8,286047005.1,N
1510019175.6,286047001.8,N
1510019195.4,286047000.0,N
1510019215.3,286047000.1,N
1510019235.1,286047000.9,N
1510019255.9,286046998.5,N
1510019275.7,286047000.4,N
1510019295.5,286046996.8,N
1510019315.4,286046997.4,N
1510019335.2,286046995.7,N
1510019355.1,286046996.1,N
1510019356.0,286046996.1,N
1510019375.8,286046993.3,N
1510019395.6,286046994.7,N
1510019415.5,286046998.0,N
1510019435.3,286046998.0,N
1510019455.1,286046996.8,N
1510019475.9,286046996.2,N
1510019495.7,286046992.5,N
1510019515.6,286046992.9,N
1510019535.4,286046989.0,N
1510019555.2,286046994.3,N
1510019575.1,286046993.4,N
1510019576.0,286046993.4,N
1510019595.8,286046997.5,N
1510019615.7,286046998.0,N
1510019635.5,286046995.6,N
1510019655.3,286046994.1,N
1510019675.2,286046996.2,N
1510019695.0,286046993.8,N
1510019695.9,286046993.8,N
1510019715.8,286046993.4,N
1510019735.6,286046989.4,Y
1510019755.4,286046995.7,P
1510019775.3,286046991.9,P
1510019795.1,286046994.1,P
1510019815.9,286046993.5,Y
1510019835.7,286047001.1,P
1510019855.5,286046999.6,N
1510019875.4,286047001.8,N
1510019895.2,286047003.1,N
1510019915.0,286047002.5,N
1510019916.0,286047002.5,N
1510019935.8,286047001.8,N
1510019955.6,286047008.4,Y
1510019975.5,286047010.7,P
1510019995.3,286047010.4,N
